This is the latest recevied weather packets stored in our database for station/object HG2HNB-13. If no packets are shown the sender has not sent any weather packets the latest 10 day(s).
| Time | Temp. | Humidity | Pressure | Rain* | Wind** | Luminosity | Snow |
|---|---|---|---|---|---|---|---|
| 1778230307 | 18.33° C | 51% | 1016.5 hPa | 0 mm | - | - | - |
| 1778227283 | 16.67° C | 56% | 1016.5 hPa | 0 mm | - | - | - |
| 1778226123 | 16.67° C | 54% | 1016.4 hPa | 0 mm | - | - | - |
| 1778221303 | 15° C | 58% | 1016.3 hPa | 0 mm | - | - | - |
| 1778220707 | 14.44° C | 58% | 1016.2 hPa | 0 mm | - | - | - |
| 1778219567 | 13.89° C | 60% | 1016 hPa | 0 mm | - | - | - |
| 1778218883 | 13.33° C | 61% | 1016.1 hPa | 0 mm | - | - | - |
| 1778217683 | 13.33° C | 65% | 1016.3 hPa | 0 mm | - | - | - |
| 1778212614 | 11.67° C | 63% | 1015.8 hPa | 0 mm | - | - | - |
| 1778211970 | 12.22° C | 62% | 1015.5 hPa | 0 mm | - | - | - |
| 1778210194 | 12.22° C | 61% | 1015.3 hPa | 0 mm | - | - | - |
| 1778209570 | 12.22° C | 61% | 1015.5 hPa | 0 mm | - | - | - |
| 1778208994 | 12.22° C | 61% | 1015.6 hPa | 0 mm | - | - | - |
| 1778208370 | 12.22° C | 62% | 1015.4 hPa | 0 mm | - | - | - |
| 1778205394 | 12.22° C | 63% | 1014.9 hPa | 0 mm | - | - | - |
| 1778201794 | 11.67° C | 67% | 1015.1 hPa | 0 mm | - | - | - |
| 1778199970 | 12.22° C | 66% | 1015.1 hPa | 0 mm | - | - | - |
| 1778199414 | 12.22° C | 66% | 1014.8 hPa | 0 mm | - | - | - |
| 1778197014 | 12.78° C | 61% | 1014.7 hPa | 0 mm | - | - | - |
| 1778195174 | 12.78° C | 66% | 1015.1 hPa | 5.59 mm | - | - | - |
| 1778194594 | 12.78° C | 70% | 1015.3 hPa | 5.59 mm | - | - | - |
| 1778188614 | 14.44° C | 71% | 1014.9 hPa | 0 mm | - | - | - |
| 1778187394 | 14.44° C | 71% | 1014.8 hPa | 0 mm | - | - | - |
| 1778184370 | 14.44° C | 69% | 1014.8 hPa | 0 mm | - | - | - |
| 1778183170 | 14.44° C | 67% | 1014.3 hPa | 0 mm | - | - | - |
* Rain latest hour (hover to see other rain measurements)
** Current wind speed in m/s (hover to see current wind gust speed)